Richmond Hanover County, VA

11:06 AM EDT on September 24, 2017 (GMT -0400)
Hanover County Municipal

Weather History for KOFP - November, 2013

Change the Weather History Date:

Wednesday, November 20, 2013

  Actual Average Record
Temperature  
Mean Temperature 40 °F -  
Max Temperature 48 °F 59 °F 76 °F (1985)
Min Temperature 32 °F 35 °F 15 °F (1959)
Degree Days  
Heating Degree Days 25    
Moisture  
Dew Point 28 °F    
Average Humidity 66    
Maximum Humidity 92    
Minimum Humidity 44    
Precipitation  
Precipitation 0.00 in - - ()
Sea Level Pressure  
Sea Level Pressure 30.49 in    
Wind  
Wind Speed 4 mph (NNE)    
Max Wind Speed 7 mph    
Max Gust Speed -    
Visibility 10 miles    
Events      
Averages and records for this station are not official NWS values.
T = Trace of Precipitation, MM = Missing Value Source: NWS Daily Summary

Daily Weather History Graph

Daily Weather History Graph

Search for Another Location

Airport or City:

Trip Planner

Search our weather history database for the weather conditions in past years. The results will help you decide how hot, cold, wet, or windy it might be!

Date:

Astronomy

Nov. 20, 2013 Rise Set
Actual Time 6:55 AM EST 4:55 PM EST
Civil Twilight 6:27 AM EST 5:23 PM EST
Nautical Twilight 5:55 AM EST 5:55 PM EST
Astronomical Twilight 5:23 AM EST 6:26 PM EST
Moon 7:36 PM EST (11/20) 9:18 AM EST (11/20)
Length of Visible Light 10h 56m
Length of Day
9h 59m
Waning Gibbous, 91% of the Moon is Illuminated
Nov 20
Waning Gibbous
Nov 25
Last Quarter
Dec 2
New
Dec 9
First Quarter
Dec 17
Full

Hourly Weather History & Observations

Time (EST) Temp. Windchill Dew Point Humidity Pressure Visibility Wind Dir Wind Speed Gust Speed Precip Events Conditions
12:54 AM 37.9 °F 34.4 °F 25.0 °F 60% 30.40 in 10.0 mi NNW 4.6 mph - N/A   Clear
1:54 AM 37.0 °F 34.5 °F 25.0 °F 62% 30.40 in 10.0 mi Variable 3.5 mph - N/A   Clear
2:54 AM 36.0 °F 33.3 °F 25.0 °F 64% 30.42 in 10.0 mi Variable 3.5 mph - N/A   Clear
3:54 AM 35.1 °F 32.2 °F 25.0 °F 67% 30.44 in 10.0 mi North 3.5 mph - N/A   Clear
4:54 AM 35.1 °F - 26.1 °F 70% 30.45 in 10.0 mi Calm Calm - N/A   Clear
5:54 AM 34.0 °F 31.0 °F 25.0 °F 70% 30.46 in 10.0 mi Variable 3.5 mph - N/A   Clear
6:54 AM 33.1 °F 28.7 °F 25.0 °F 72% 30.49 in 10.0 mi North 4.6 mph - N/A   Clear
7:54 AM 35.1 °F 32.2 °F 25.0 °F 67% 30.51 in 10.0 mi North 3.5 mph - N/A   Clear
8:54 AM 37.0 °F 31.6 °F 25.0 °F 62% 30.53 in 10.0 mi North 6.9 mph - N/A   Clear
9:54 AM 41.0 °F 38.0 °F 26.1 °F 55% 30.55 in 10.0 mi Variable 4.6 mph - N/A   Clear
10:54 AM 43.0 °F 39.5 °F 26.1 °F 51% 30.55 in 10.0 mi Variable 5.8 mph - N/A   Clear
11:54 AM 46.0 °F 43.1 °F 27.0 °F 47% 30.51 in 10.0 mi North 5.8 mph - N/A   Clear
12:54 PM 48.9 °F - 28.0 °F 44% 30.49 in 10.0 mi NE 6.9 mph - N/A   Clear
1:54 PM 48.9 °F - 28.9 °F 46% 30.48 in 10.0 mi Variable 6.9 mph - N/A   Clear
2:54 PM 48.9 °F - 30.0 °F 48% 30.47 in 10.0 mi Variable 5.8 mph - N/A   Clear
3:54 PM 48.0 °F - 30.9 °F 52% 30.48 in 10.0 mi East 4.6 mph - N/A   Clear
4:54 PM 44.1 °F 41.5 °F 32.0 °F 63% 30.50 in 10.0 mi ENE 4.6 mph - N/A   Partly Cloudy
5:54 PM 42.1 °F 39.2 °F 33.1 °F 70% 30.52 in 10.0 mi ENE 4.6 mph - N/A   Mostly Cloudy
6:54 PM 39.9 °F - 33.1 °F 77% 30.53 in 10.0 mi Calm Calm - N/A   Overcast
7:54 PM 37.0 °F - 33.1 °F 86% 30.53 in 10.0 mi Calm Calm - N/A   Partly Cloudy
8:54 PM 35.1 °F - 32.0 °F 89% 30.54 in 10.0 mi Calm Calm - N/A   Partly Cloudy
9:54 PM 34.0 °F - 30.9 °F 89% 30.55 in 10.0 mi Calm Calm - N/A   Clear
10:54 PM 32.0 °F - 30.0 °F 92% 30.53 in 10.0 mi Calm Calm - N/A   Scattered Clouds
11:54 PM 37.0 °F - 33.1 °F 86% 30.54 in 10.0 mi Calm Calm - N/A   Mostly Cloudy